Cloud_Cover
100 100 100 100 100 100 100 100 100 100 100 100 100 100 100 100 100 100 100 100 100 100
98 98 92 100 100 100 100 100 100 100 100 100 100 100 100 100 100 100 100 100 100 100
79 96 98 100 100 100 100 100 100 100 100 100 100 100 100 100 88 100 100 87 100 100
100 100 84 90 100 100 100 100 100 100 100 100 100 98 100 100 88 81 100 91 100 100
99 100 100 100 100 100 100 100 100 100 100 100 100 100 100 100 99 100 99 99 100 100
100 100 100 100 100 98 100 100 100 100 100 100 100 100 100 100 100 100 100 100 100 100
100 95 100 100 88 99 100 100 100 100 100 100 100 100 100 100 100 100 100 100 100 100
100 100 100 100 100 100 100 100 100 100 100 100 100 100 100 100 100 100 100 100 100 100
100 100 100 100 100 100 100 100 100 100 100 100 100 100 100 100 100 100 100 100 100 100
100 100 100 100 100 100 100 100 100 100 100 100 100 100 92 100 100 100 100 100 100 100
100 100 100 100 100 100 100 100 100 100 100 100 100 100 100 100 100 100 100 100 100 100
100 100 100 100 100 100 100 100 100 100 100 100 100 100 100 100 100 100 100 100 97 17
100 100 100 100 100 100 100 100 100 100 100 100 100 100 100 100 100 100 59 9 34 6
100 100 100 100 100 100 100 100 100 100 100 100 100 100 100 100 76 73 5 12 5 23